AC1EG Weather Reports


time (UTC)temp
C
wind
direction
speed
KPH
gust
KPH
rain 1hr
cm
rain 24hr
cm
rain mn
cm
humidity
%
barometer
mb
20260906214532 31 102 1.6 16.1 0.00 0.00 0.00 34 1021.3
20260906213032 31 232 4.8 14.5 0.00 0.00 0.00 32 1021.5
20260906211530 31 103 3.2 16.1 0.00 0.00 0.00 33 1021.5
20260906210031 31 186 3.2 17.7 0.00 0.00 0.00 36 1021.7
20260906204533 31 258 3.2 11.3 0.00 0.00 0.00 35 1021.9
20260906203031 31 119 1.6 16.1 0.00 0.00 0.00 36 1022.1
20260906201529 31 138 3.2 16.1 0.00 0.00 0.00 35 1022.2
20260906200029 31 289 3.2 16.1 0.00 0.00 0.00 37 1022.1
20260906194531 31 313 1.6 9.7 0.00 0.00 0.00 37 1022.2
20260906193038 31 42 3.2 9.7 0.00 0.00 0.00 35 1022.4
20260906191531 31 239 3.2 8.0 0.00 0.00 0.00 34 1022.4
20260906190031 31 60 1.6 9.7 0.00 0.00 0.00 34 1022.8
20260906184534 30 221 1.6 11.3 0.00 0.00 0.00 37 1023.0
20260906183037 30 256 3.2 14.5 0.00 0.00 0.00 35 1023.3
20260906181540 30 204 1.6 11.3 0.00 0.00 0.00 35 1023.5
20260906180032 29 286 0.0 9.7 0.00 0.00 0.00 38 1024.0
20260906174535 28 225 1.6 4.8 0.00 0.00 0.00 41 1024.1
20260906173032 28 252 3.2 8.0 0.00 0.00 0.00 36 1024.3
20260906171530 28 227 1.6 11.3 0.00 0.00 0.00 39 1024.3
20260906170027 28 240 1.6 9.7 0.00 0.00 0.00 37 1024.3
20260906164536 27 84 0.0 8.0 0.00 0.00 0.00 40 1024.3
20260906163031 25 29 1.6 8.0 0.00 0.00 0.00 41 1024.4
20260906161530 24 212 1.6 6.4 0.00 0.00 0.00 43 1024.3
20260906160032 23 163 0.0 6.4 0.00 0.00 0.00 45 1024.4
20260906154531 22 225 0.0 8.0 0.00 0.00 0.00 51 1024.3
20260906153034 21 360 0.0 0.0 0.00 0.00 0.00 55 1024.2
20260906151529 20 360 0.0 0.0 0.00 0.00 0.00 56 1024.2
20260906150033 19 360 0.0 0.0 0.00 0.00 0.00 55 1024.1
20260906144533 18 360 0.0 4.8 0.00 0.00 0.00 59 1024.1
20260906143032 18 329 0.0 3.2 0.00 0.00 0.00 59 1024.0
20260906141531 17 5 1.6 6.4 0.00 0.00 0.00 60 1023.9
20260906140033 17 360 0.0 1.6 0.00 0.00 0.00 61 1023.9
20260906134530 16 346 0.0 6.4 0.00 0.00 0.00 62 1023.9
20260906133041 16 26 1.6 6.4 0.00 0.00 0.00 62 1023.8
20260906131530 15 102 0.0 0.0 0.00 0.00 0.00 64 1023.5
20260906130029 15 102 0.0 0.0 0.00 0.00 0.00 63 1023.5
20260906124537 15 102 0.0 0.0 0.00 0.00 0.00 62 1023.5
20260906123036 16 102 0.0 0.0 0.00 0.00 0.00 62 1023.3
20260906121533 16 102 0.0 0.0 0.00 0.00 0.00 62 1023.2
20260906120031 16 102 0.0 0.0 0.00 0.00 0.00 61 1023.2
20260906114531 16 41 0.0 0.0 0.00 0.00 0.00 61 1023.2
20260906113036 16 41 0.0 0.0 0.00 0.00 0.00 62 1023.1
20260906111531 16 41 0.0 0.0 0.00 0.00 0.00 63 1023.0
20260906110030 16 41 0.0 0.0 0.00 0.00 0.00 65 1022.8
20260906104527 16 41 0.0 0.0 0.00 0.00 0.00 64 1022.8
20260906103042 17 41 0.0 0.0 0.00 0.00 0.00 64 1022.9
20260906101533 17 136 0.0 0.0 0.00 0.00 0.00 65 1022.9
20260906100034 17 136 0.0 0.0 0.00 0.00 0.00 65 1023.3
20260906094532 17 136 0.0 4.8 0.00 0.00 0.00 66 1023.4
20260906093029 17 355 0.0 0.0 0.00 0.00 0.00 67 1023.2
20260906091530 17 355 0.0 3.2 0.00 0.00 0.00 68 1023.1
20260906090030 17 34 0.0 4.8 0.00 0.00 0.00 69 1023.0
20260906084532 17 26 0.0 3.2 0.00 0.00 0.00 70 1023.0
20260906083032 17 26 0.0 0.0 0.00 0.00 0.00 70 1023.0
20260906081531 17 26 0.0 0.0 0.00 0.00 0.00 70 1023.0
20260906080033 17 26 0.0 6.4 0.00 0.00 0.00 70 1023.1
20260906074533 17 5 0.0 3.2 0.00 0.00 0.00 70 1023.4
20260906073031 17 17 0.0 3.2 0.00 0.00 0.00 70 1023.4
20260906071530 17 17 1.6 4.8 0.00 0.00 0.00 70 1023.4
20260906070031 18 5 0.0 4.8 0.00 0.00 0.00 68 1023.6
20260906064535 18 108 0.0 0.0 0.00 0.00 0.00 67 1023.7
20260906063031 18 108 0.0 0.0 0.00 0.00 0.00 67 1023.6
20260906061532 18 108 0.0 1.6 0.00 0.00 0.00 67 1023.4
20260906060031 18 108 0.0 1.6 0.00 0.00 0.00 67 1023.4
20260906054537 18 108 0.0 0.0 0.00 0.00 0.00 66 1023.4
20260906053029 19 108 0.0 1.6 0.00 0.00 0.00 65 1023.2
20260906051531 20 108 0.0 1.6 0.00 0.00 0.00 64 1023.4
20260906050033 20 108 0.0 0.0 0.00 0.00 0.00 63 1023.4
20260906044533 20 108 0.0 0.0 0.00 0.00 0.00 63 1023.5
20260906043033 20 108 0.0 0.0 0.00 0.00 0.00 62 1023.6
20260906041532 21 108 0.0 1.6 0.00 0.00 0.00 61 1023.6
20260906040030 21 108 0.0 1.6 0.00 0.00 0.00 60 1023.7
20260906034531 21 55 0.0 1.6 0.00 0.00 0.00 59 1023.9
20260906033031 22 55 0.0 1.6 0.00 0.00 0.00 59 1023.7
20260906031529 22 55 0.0 1.6 0.00 0.00 0.00 57 1023.4
20260906030031 22 71 0.0 8.0 0.00 0.00 0.00 57 1023.1
20260906024530 23 145 0.0 3.2 0.00 0.00 0.00 56 1022.9
20260906023028 23 118 0.0 11.3 0.00 0.00 0.00 56 1022.7
20260906021539 23 284 1.6 9.7 0.00 0.00 0.00 50 1022.6
20260906020031 25 31 0.0 3.2 0.00 0.00 0.00 35 1022.0
20260906014528 25 31 0.0 1.6 0.00 0.00 0.00 35 1021.8
20260906013039 25 31 0.0 1.6 0.00 0.00 0.00 34 1021.8
20260906011533 26 24 3.2 8.0 0.00 0.00 0.00 33 1021.8
20260906010031 26 355 1.6 9.7 0.00 0.00 0.00 33 1021.9
20260906004527 27 15 3.2 12.9 0.00 0.00 0.00 32 1022.1
20260906003029 27 334 3.2 9.7 0.00 0.00 0.00 32 1022.1
20260906001528 27 34 0.0 3.2 0.00 0.00 0.00 32 1021.9
20260906000030 27 348 0.0 3.2 0.00 0.00 0.00 32 1021.9
20260905234531 27 348 0.0 1.6 0.00 0.00 0.00 32 1021.8
20260905233029 28 348 0.0 4.8 0.00 0.00 0.00 30 1021.9
20260905231530 28 35 0.0 4.8 0.00 0.00 0.00 29 1021.8
20260905230030 28 19 0.0 6.4 0.00 0.00 0.00 30 1021.7
20260905224532 28 355 1.6 11.3 0.00 0.00 0.00 28 1021.9
20260905223031 28 25 3.2 9.7 0.00 0.00 0.00 31 1021.9
20260905221528 27 19 3.2 8.0 0.00 0.00 0.00 31 1022.3
20260905220030 27 293 0.0 3.2 0.00 0.00 0.00 32 1022.3